Location: Bucquoy
(50.1391°N, 2.7097°E)
Time: 03:45:21
(UTC+00:00)

Cosmos 614 Rocket - Pass Details

Date: 06 May 2021
Orbit: 733 x 764 km, 74.1° (Epoch: 22 June)

Event Time Altitude Azimuth Distance (km) Brightness Sun altitude
Rises 03:07:43 0° 333° (NNW) 3,174 7.4 -9.9°
Reaches altitude 10° 03:10:05 10° 330° (NNW) 2,249 6.6 -9.6°
Maximum altitude 03:15:05 61° 251° (WSW) 837 4.0 -9.0°
Drops below altitude 10° 03:20:05 10° 172° (S) 2,246 6.1 -8.4°
Sets 03:22:27 0° 169° (S) 3,169 6.9 -8.1°
